When you browse on this site, cookies collect data to enhance your experience and personalize the content and advertising you see.
Visit our Privacy Policy to learn more. By continuing to use the site, you agree to this use of cookies and data.
  • In Latvia
  • List of Countries
  • For 7 days
  • Water Temperature
  • Weather Map
  • Weather Widgets
  • user-avatar
    Login

    Hourly Weather Aleksandrinskiy

    Today, 22 August, Thursday

    Time Temperature Precipitation Wind Pressure Humidity
    00:00 +20°C° 0 mm 2 mps 744 mmHg 86%
    01:00 +20°C° 0 mm 2 mps 744 mmHg 87%
    02:00 +20°C° 0 mm 2 mps 744 mmHg 89%
    03:00 +20°C° 0 mm 2 mps 744 mmHg 89%
    04:00 +19°C° 0 mm 2 mps 744 mmHg 90%
    05:00 +19°C° 0 mm 2 mps 743 mmHg 90%
    06:00 +19°C° 0 mm 2 mps 743 mmHg 90%
    07:00 +21°C° 0 mm 2 mps 743 mmHg 84%
    08:00 +23°C° 0 mm 2 mps 743 mmHg 78%
    09:00 +25°C° 0 mm 2 mps 743 mmHg 73%
    10:00 +26°C° 0.1 mm 2 mps 743 mmHg 69%
    11:00 +27°C° 0.1 mm 2 mps 743 mmHg 65%
    12:00 +28°C° 0.1 mm 2 mps 743 mmHg 62%
    13:00 +28°C° 0.5 mm 2 mps 743 mmHg 62%
    14:00 +28°C° 0.5 mm 2 mps 743 mmHg 62%
    15:00 +28°C° 0.5 mm 2 mps 743 mmHg 62%
    16:00 +27°C° 0.8 mm 3 mps 743 mmHg 69%
    17:00 +25°C° 0.8 mm 4 mps 743 mmHg 76%
    18:00 +23°C° 0.8 mm 5 mps 744 mmHg 83%
    19:00 +21°C° 0 mm 5 mps 744 mmHg 85%
    20:00 +20°C° 0 mm 4 mps 744 mmHg 86%
    21:00 +19°C° 0 mm 4 mps 745 mmHg 88%
    22:00 +18°C° 0 mm 4 mps 745 mmHg 88%
    23:00 +17°C° 0 mm 4 mps 745 mmHg 88%

    Tomorrow, 23 August, Friday

    Time Temperature Precipitation Wind Pressure Humidity
    00:00 +15°C° 0 mm 4 mps 745 mmHg 88%
    01:00 +15°C° 0 mm 4 mps 746 mmHg 89%
    02:00 +14°C° 0 mm 4 mps 746 mmHg 90%
    03:00 +14°C° 0 mm 4 mps 747 mmHg 91%
    04:00 +13°C° 0 mm 4 mps 747 mmHg 92%
    05:00 +13°C° 0 mm 3 mps 747 mmHg 92%
    06:00 +12°C° 0 mm 3 mps 746 mmHg 93%
    07:00 +14°C° 0 mm 3 mps 747 mmHg 89%
    08:00 +15°C° 0 mm 4 mps 747 mmHg 85%
    09:00 +17°C° 0 mm 4 mps 748 mmHg 81%
    10:00 +18°C° 0 mm 4 mps 748 mmHg 75%
    11:00 +19°C° 0 mm 4 mps 748 mmHg 69%
    12:00 +21°C° 0 mm 3 mps 748 mmHg 64%
    13:00 +21°C° 0 mm 3 mps 748 mmHg 61%
    14:00 +21°C° 0 mm 4 mps 748 mmHg 59%
    15:00 +22°C° 0 mm 4 mps 748 mmHg 56%
    16:00 +21°C° 0 mm 3 mps 747 mmHg 60%
    17:00 +21°C° 0 mm 3 mps 747 mmHg 64%
    18:00 +21°C° 0 mm 2 mps 747 mmHg 67%
    19:00 +19°C° 0 mm 2 mps 747 mmHg 71%
    20:00 +17°C° 0 mm 2 mps 747 mmHg 74%
    21:00 +16°C° 0 mm 2 mps 747 mmHg 77%
    22:00 +15°C° 0 mm 1 mps 747 mmHg 77%
    23:00 +15°C° 0 mm 1 mps 747 mmHg 78%

    Day after tomorrow, 24 August, Saturday

    Time Temperature Precipitation Wind Pressure Humidity
    00:00 +15°C° 0 mm 1 mps 747 mmHg 79%
    01:00 +14°C° 0 mm 1 mps 747 mmHg 80%
    02:00 +14°C° 0 mm 1 mps 747 mmHg 81%
    03:00 +13°C° 0 mm 2 mps 748 mmHg 83%
    04:00 +13°C° 0 mm 1 mps 747 mmHg 83%
    05:00 +13°C° 0 mm 1 mps 747 mmHg 84%
    06:00 +13°C° 0 mm 1 mps 747 mmHg 84%
    07:00 +15°C° 0 mm 1 mps 748 mmHg 79%
    08:00 +16°C° 0 mm 1 mps 748 mmHg 73%
    09:00 +19°C° 0 mm 1 mps 748 mmHg 67%
    10:00 +20°C° 0 mm 1 mps 748 mmHg 63%
    11:00 +22°C° 0 mm 1 mps 748 mmHg 58%
    12:00 +23°C° 0 mm 1 mps 747 mmHg 54%
    13:00 +23°C° 0 mm 1 mps 747 mmHg 52%
    14:00 +23°C° 0 mm 2 mps 747 mmHg 50%
    15:00 +24°C° 0 mm 2 mps 747 mmHg 48%
    16:00 +23°C° 0 mm 2 mps 747 mmHg 53%
    17:00 +23°C° 0 mm 2 mps 746 mmHg 57%
    18:00 +23°C° 0 mm 2 mps 746 mmHg 61%
    19:00 +20°C° 0 mm 2 mps 746 mmHg 65%
    20:00 +18°C° 0 mm 2 mps 746 mmHg 69%
    21:00 +17°C° 0 mm 2 mps 746 mmHg 73%
    22:00 +16°C° 0 mm 2 mps 746 mmHg 75%
    23:00 +16°C° 0 mm 2 mps 746 mmHg 77%

    25 August, Sunday

    Time Temperature Precipitation Wind Pressure Humidity
    00:00 +15°C° 0 mm 2 mps 746 mmHg 79%
    01:00 +15°C° 0 mm 2 mps 746 mmHg 81%
    02:00 +15°C° 0 mm 2 mps 746 mmHg 83%
    03:00 +14°C° 0 mm 2 mps 745 mmHg 86%
    04:00 +14°C° 0 mm 2 mps 745 mmHg 87%
    05:00 +14°C° 0 mm 2 mps 745 mmHg 89%
    06:00 +14°C° 0 mm 2 mps 745 mmHg 90%
    07:00 +15°C° 0 mm 2 mps 745 mmHg 85%
    08:00 +17°C° 0 mm 3 mps 745 mmHg 81%
    09:00 +19°C° 0 mm 3 mps 745 mmHg 76%
    10:00 +20°C° 0 mm 3 mps 745 mmHg 71%
    11:00 +21°C° 0 mm 3 mps 745 mmHg 66%
    12:00 +24°C° 0 mm 3 mps 745 mmHg 61%
    13:00 +23°C° 0.1 mm 4 mps 745 mmHg 62%
    14:00 +23°C° 0.1 mm 4 mps 745 mmHg 62%
    15:00 +23°C° 0.1 mm 4 mps 745 mmHg 63%
    16:00 +22°C° 0.2 mm 4 mps 745 mmHg 66%
    17:00 +22°C° 0.2 mm 3 mps 745 mmHg 70%
    18:00 +21°C° 0.2 mm 3 mps 745 mmHg 73%
    19:00 +20°C° 0 mm 2 mps 745 mmHg 76%
    20:00 +18°C° 0 mm 2 mps 745 mmHg 78%
    21:00 +17°C° 0 mm 2 mps 745 mmHg 80%
    22:00 +16°C° 0 mm 1 mps 746 mmHg 79%
    23:00 +15°C° 0 mm 1 mps 746 mmHg 78%

    26 August, Monday

    Time Temperature Precipitation Wind Pressure Humidity
    00:00 +15°C° 0 mm 1 mps 746 mmHg 78%
    01:00 +15°C° 0 mm 1 mps 746 mmHg 79%
    02:00 +14°C° 0 mm 1 mps 747 mmHg 81%
    03:00 +14°C° 0 mm 2 mps 747 mmHg 82%
    04:00 +13°C° 0 mm 2 mps 747 mmHg 84%
    05:00 +13°C° 0 mm 2 mps 747 mmHg 86%
    06:00 +13°C° 0 mm 2 mps 747 mmHg 88%
    07:00 +14°C° 0 mm 2 mps 748 mmHg 83%
    08:00 +16°C° 0 mm 2 mps 748 mmHg 78%
    09:00 +17°C° 0 mm 2 mps 749 mmHg 73%
    10:00 +18°C° 0 mm 2 mps 749 mmHg 68%
    11:00 +19°C° 0 mm 2 mps 749 mmHg 63%
    12:00 +20°C° 0 mm 2 mps 749 mmHg 59%
    13:00 +21°C° 0 mm 2 mps 749 mmHg 56%
    14:00 +22°C° 0 mm 1 mps 749 mmHg 54%
    15:00 +23°C° 0 mm 1 mps 749 mmHg 51%
    16:00 +22°C° 0 mm 1 mps 748 mmHg 54%
    17:00 +22°C° 0 mm 1 mps 748 mmHg 58%
    18:00 +22°C° 0 mm 1 mps 748 mmHg 61%
    19:00 +20°C° 0 mm 1 mps 748 mmHg 64%
    20:00 +18°C° 0 mm 1 mps 748 mmHg 68%
    21:00 +16°C° 0 mm 1 mps 748 mmHg 71%
    22:00 +15°C° 0 mm 2 mps 748 mmHg 72%
    23:00 +15°C° 0 mm 2 mps 748 mmHg 74%

    27 August, Tuesday

    Time Temperature Precipitation Wind Pressure Humidity
    00:00 +15°C° 0 mm 2 mps 748 mmHg 75%
    01:00 +14°C° 0 mm 2 mps 748 mmHg 76%
    02:00 +14°C° 0 mm 2 mps 748 mmHg 76%
    03:00 +14°C° 0 mm 2 mps 748 mmHg 77%
    04:00 +14°C° 0 mm 2 mps 748 mmHg 77%
    05:00 +14°C° 0 mm 2 mps 748 mmHg 77%
    06:00 +14°C° 0 mm 2 mps 748 mmHg 76%
    07:00 +15°C° 0 mm 2 mps 748 mmHg 73%
    08:00 +17°C° 0 mm 2 mps 748 mmHg 69%
    09:00 +18°C° 0 mm 3 mps 748 mmHg 66%
    10:00 +19°C° 0 mm 3 mps 748 mmHg 65%
    11:00 +20°C° 0 mm 2 mps 748 mmHg 64%
    12:00 +20°C° 0 mm 2 mps 748 mmHg 63%
    13:00 +20°C° 0 mm 2 mps 747 mmHg 63%
    14:00 +21°C° 0 mm 2 mps 747 mmHg 62%
    15:00 +21°C° 0 mm 2 mps 747 mmHg 62%
    16:00 +21°C° 0 mm 2 mps 746 mmHg 63%
    17:00 +22°C° 0 mm 1 mps 746 mmHg 65%
    18:00 +22°C° 0 mm 1 mps 746 mmHg 67%
    19:00 +21°C° 0 mm 1 mps 746 mmHg 70%
    20:00 +20°C° 0 mm 1 mps 746 mmHg 73%
    21:00 +17°C° 0 mm 2 mps 746 mmHg 77%
    22:00 +17°C° 0 mm 2 mps 746 mmHg 78%
    23:00 +17°C° 0 mm 2 mps 746 mmHg 80%
    Show more